FW3958 Weather Reports


time (UTC)temp
C
wind
direction
speed
KPH
gust
KPH
rain 1hr
cm
rain 24hr
cm
rain mn
cm
humidity
%
barometer
mb
20260509174507 15 321 6.4 12.9 0.00 0.00 0.00 88 1022.6
20260509173006 15 301 4.8 11.3 0.00 0.00 0.00 89 1022.6
20260509171505 15 317 4.8 11.3 0.00 0.00 0.00 88 1022.6
20260509170004 15 338 4.8 12.9 0.00 0.00 0.00 87 1022.5
20260509164502 15 7 1.6 6.4 0.00 0.00 0.00 90 1022.6
20260509163058 14 338 0.0 3.2 0.00 0.00 0.00 91 1022.8
20260509161558 13 68 1.6 6.4 0.00 0.00 0.00 94 1022.6
20260509160053 12 26 1.6 8.0 0.00 0.00 0.00 94 1022.7
20260509154550 12 104 0.0 4.8 0.00 0.00 0.00 98 1022.7
20260509153045 11 16 0.0 4.8 0.00 0.00 0.00 100 1023.3
20260509151544 10 15 1.6 6.4 0.00 0.00 0.00 100 1023.3
20260509150043 10 259 0.0 0.0 0.00 0.00 0.00 100 1023.3
20260509144543 8 259 0.0 0.0 0.00 0.00 0.00 100 1023.3
20260509143042 7 259 0.0 0.0 0.00 0.00 0.00 100 1023.6
20260509141541 7 259 0.0 0.0 0.00 0.00 0.00 100 1023.5
20260509140042 6 259 0.0 0.0 0.00 0.00 0.00 100 1023.5
20260509134540 6 259 0.0 0.0 0.00 0.00 0.00 100 1023.2
20260509133039 6 259 0.0 0.0 0.00 0.00 0.00 100 1023.3
20260509131541 6 259 0.0 0.0 0.00 0.00 0.00 100 1023.5
20260509130050 6 259 0.0 0.0 0.00 0.00 0.00 100 1023.5
20260509124539 6 259 0.0 0.0 0.00 0.00 0.00 100 1023.7
20260509123033 6 259 0.0 0.0 0.00 0.00 0.00 100 1023.7
20260509121530 6 259 0.0 0.0 0.00 0.00 0.00 100 1023.9
20260509120032 7 259 0.0 0.0 0.00 0.00 0.00 100 1024.1
20260509114526 7 259 0.0 0.0 0.00 0.00 0.00 100 1024.2
20260509113024 7 259 0.0 0.0 0.00 0.00 0.00 100 1024.1
20260509111522 7 259 0.0 0.0 0.00 0.00 0.00 100 1024.2
20260509110021 8 259 0.0 0.0 0.00 0.00 0.00 100 1024.3
20260509104518 8 259 0.0 0.0 0.00 0.00 0.00 100 1024.4
20260509103019 8 259 0.0 0.0 0.00 0.00 0.00 100 1024.3
20260509101516 8 259 0.0 0.0 0.00 0.00 0.00 100 1024.6
20260509100020 8 259 0.0 0.0 0.00 0.00 0.00 100 1024.5
20260509094510 9 259 0.0 0.0 0.00 0.00 0.00 99 1024.4
20260509093008 10 259 0.0 0.0 0.00 0.00 0.00 99 1024.4
20260509091504 10 259 0.0 0.0 0.00 0.00 0.00 100 1024.6
20260509090003 11 259 0.0 0.0 0.00 0.00 0.00 100 1024.6
20260509084600 11 259 0.0 0.0 0.00 0.00 0.00 100 1024.8
20260509083059 11 259 0.0 0.0 0.00 0.00 0.00 100 1024.9
20260509081603 11 259 0.0 0.0 0.00 0.00 0.00 100 1024.9
20260509080101 11 261 0.0 0.0 0.00 0.00 0.00 100 1024.9
20260509074555 11 261 0.0 0.0 0.00 0.00 0.00 100 1024.9
20260509073054 11 261 0.0 0.0 0.00 0.00 0.00 100 1024.9
20260509071557 11 261 0.0 0.0 0.00 0.00 0.00 100 1024.9
20260509070059 11 261 0.0 0.0 0.00 0.00 0.00 100 1024.9
20260509064554 11 261 0.0 0.0 0.00 0.00 0.00 100 1025.1
20260509063051 10 261 0.0 0.0 0.00 0.00 0.00 100 1025.1
20260509061606 10 261 0.0 0.0 0.00 0.00 0.00 100 1025.2
20260509060104 10 261 0.0 0.0 0.00 0.00 0.00 100 1025.2
20260509054553 10 261 0.0 0.0 0.00 0.00 0.00 100 1025.3
20260509053049 10 261 0.0 0.0 0.00 0.00 0.00 100 1025.2
20260509051548 10 261 0.0 0.0 0.00 0.00 0.00 100 1025.4
20260509044557 10 261 0.0 0.0 0.00 0.00 0.00 98 1025.0
20260509043046 11 261 0.0 0.0 0.00 0.00 0.00 97 1024.9
20260509041546 11 261 0.0 0.0 0.00 0.00 0.00 95 1024.9
20260509040045 12 261 0.0 0.0 0.00 0.00 0.00 95 1025.0
20260509034545 12 261 0.0 3.2 0.00 0.00 0.00 95 1024.9
20260509033045 12 261 0.0 3.2 0.00 0.00 0.00 94 1025.0
20260509031548 12 274 1.6 6.4 0.00 0.00 0.00 94 1024.9
20260509030044 12 208 0.0 6.4 0.00 0.00 0.00 94 1024.8
20260509024543 12 209 4.8 11.3 0.00 0.00 0.00 93 1024.8
20260509023055 12 274 0.0 8.0 0.00 0.00 0.00 93 1024.9
20260509021542 12 225 1.6 12.9 0.00 0.00 0.00 92 1024.8
20260509020042 13 219 1.6 11.3 0.00 0.00 0.00 91 1024.9
20260509014544 13 219 1.6 14.5 0.00 0.00 0.00 90 1024.8
20260509013043 13 213 3.2 9.7 0.00 0.00 0.00 90 1024.8
20260509011540 13 237 12.9 20.9 0.00 0.00 0.00 88 1024.8
20260509010041 13 263 4.8 17.7 0.00 0.00 0.00 89 1024.8
20260509004541 13 200 4.8 20.9 0.00 0.00 0.00 89 1024.9
20260509003055 13 173 8.0 20.9 0.00 0.00 0.00 87 1024.9
20260509001538 13 219 12.9 22.5 0.00 0.00 0.00 87 1024.9
20260509000042 13 206 14.5 20.9 0.00 0.00 0.00 87 1025.0
20260508234540 13 218 8.0 25.7 0.00 0.00 0.00 86 1025.2
20260508233037 14 243 12.9 22.5 0.00 0.00 0.00 85 1025.1
20260508231536 14 280 4.8 22.5 0.00 0.00 0.00 84 1025.1
20260508230041 15 193 4.8 16.1 0.00 0.00 0.00 84 1025.0
20260508224535 14 219 8.0 27.4 0.00 0.00 0.00 83 1025.1
20260508223038 15 212 11.3 27.4 0.00 0.00 0.00 82 1025.1
20260508221536 14 199 14.5 30.6 0.00 0.00 0.00 82 1025.0
20260508220032 14 195 16.1 30.6 0.00 0.00 0.00 82 1025.0
20260508214531 14 200 16.1 29.0 0.00 0.00 0.00 83 1025.0
20260508213030 14 201 16.1 25.7 0.00 0.00 0.00 82 1024.9
20260508211529 14 235 8.0 27.4 0.00 0.00 0.00 81 1024.8
20260508210029 14 195 11.3 25.7 0.00 0.00 0.00 81 1024.7
20260508204532 13 209 11.3 32.2 0.00 0.00 0.00 83 1024.7
20260508203028 14 221 16.1 29.0 0.00 0.00 0.00 82 1024.6
20260508201527 15 199 12.9 25.7 0.00 0.00 0.00 79 1024.5
20260508200026 15 176 16.1 27.4 0.00 0.00 0.00 79 1024.3
20260508194538 15 207 8.0 25.7 0.00 0.00 0.00 79 1024.2
20260508193022 15 254 3.2 19.3 0.00 0.00 0.00 81 1024.0
20260508191520 15 218 4.8 17.7 0.00 0.00 0.00 80 1023.9
20260508190017 13 207 12.9 24.1 0.00 0.00 0.00 84 1024.1
20260508184514 12 202 11.3 20.9 0.00 0.00 0.00 84 1024.1
20260508183013 12 214 4.8 19.3 0.00 0.00 0.00 84 1024.3
20260508181520 12 192 3.2 24.1 0.00 0.00 0.00 85 1024.1
20260508180010 12 197 12.9 25.7 0.00 0.00 0.00 84 1024.1